Schneifelwetter: Wetterstation Hallschlag, 537 m . NN
Wetterdaten: Samstag, 08.09.2012
Datum Zeit Temp. A. Feuchte A. Luftdruck Regen Wind Richtung Richtung Sonnenschein Helligkeit T Regen Taupunkt Windchill
08.09.2012 00:14 7,5 C 81 % 1023 hPa 0,0 l/m 0,0 km/h (0 Bft) W 265 0 min 0 lux 0 min 4,5 C 7,5 C
08.09.2012 00:29 7,3 C 82 % 1023 hPa 0,0 l/m 0,0 km/h (0 Bft) W 265 0 min 0 lux 0 min 4,4 C 7,3 C
08.09.2012 00:44 7,2 C 83 % 1023 hPa 0,0 l/m 0,0 km/h (0 Bft) W 265 0 min 0 lux 0 min 4,5 C 7,2 C
08.09.2012 00:59 6,9 C 82 % 1023 hPa 0,0 l/m 0,0 km/h (0 Bft) W 270 0 min 0 lux 0 min 4,0 C 6,9 C
08.09.2012 01:14 6,7 C 83 % 1023 hPa 0,0 l/m 0,0 km/h (0 Bft) W 270 0 min 0 lux 0 min 4,0 C 6,7 C
08.09.2012 01:29 6,5 C 84 % 1023 hPa 0,0 l/m 0,0 km/h (0 Bft) W 270 0 min 0 lux 0 min 4,0 C 6,5 C
08.09.2012 01:44 6,3 C 84 % 1023 hPa 0,0 l/m 0,0 km/h (0 Bft) W 270 0 min 0 lux 0 min 3,8 C 6,3 C
08.09.2012 01:59 6,0 C 84 % 1023 hPa 0,0 l/m 0,0 km/h (0 Bft) W 270 0 min 0 lux 0 min 3,5 C 6,0 C
08.09.2012 02:14 5,9 C 85 % 1023 hPa 0,0 l/m 0,0 km/h (0 Bft) W 265 0 min 0 lux 0 min 3,6 C 5,9 C
08.09.2012 02:29 5,8 C 86 % 1022 hPa 0,0 l/m 0,0 km/h (0 Bft) W 265 0 min 0 lux 0 min 3,6 C 5,8 C
08.09.2012 02:44 5,7 C 85 % 1022 hPa 0,0 l/m 0,0 km/h (0 Bft) W 265 0 min 0 lux 0 min 3,4 C 5,7 C
08.09.2012 02:59 5,6 C 86 % 1022 hPa 0,0 l/m 0,0 km/h (0 Bft) W 265 0 min 0 lux 0 min 3,4 C 5,6 C
08.09.2012 03:14 5,5 C 87 % 1022 hPa 0,0 l/m 0,0 km/h (0 Bft) W 270 0 min 0 lux 0 min 3,5 C 5,5 C
08.09.2012 03:29 5,4 C 87 % 1022 hPa 0,0 l/m 0,0 km/h (0 Bft) W 270 0 min 0 lux 0 min 3,4 C 5,4 C
08.09.2012 03:44 5,2 C 87 % 1022 hPa 0,0 l/m 0,0 km/h (0 Bft) W 265 0 min 0 lux 0 min 3,2 C 5,2 C
08.09.2012 03:59 4,8 C 87 % 1022 hPa 0,0 l/m 0,0 km/h (0 Bft) W 270 0 min 0 lux 0 min 2,8 C 4,8 C
08.09.2012 04:14 4,7 C 87 % 1022 hPa 0,0 l/m 0,0 km/h (0 Bft) W 270 0 min 0 lux 0 min 2,7 C 4,7 C
08.09.2012 04:29 4,5 C 87 % 1022 hPa 0,0 l/m 0,0 km/h (0 Bft) W 270 0 min 0 lux 0 min 2,5 C 4,5 C
08.09.2012 04:44 4,5 C 88 % 1022 hPa 0,0 l/m 0,0 km/h (0 Bft) W 270 0 min 0 lux 0 min 2,7 C 4,5 C
08.09.2012 04:59 4,4 C 88 % 1022 hPa 0,0 l/m 0,0 km/h (0 Bft) W 270 0 min 0 lux 0 min 2,6 C 4,4 C
08.09.2012 05:14 4,2 C 88 % 1022 hPa 0,0 l/m 0,0 km/h (0 Bft) W 270 0 min 0 lux 0 min 2,4 C 4,2 C
08.09.2012 05:29 4,2 C 89 % 1022 hPa 0,0 l/m 0,0 km/h (0 Bft) W 270 0 min 0 lux 0 min 2,6 C 4,2 C
08.09.2012 05:44 4,2 C 89 % 1022 hPa 0,0 l/m 0,0 km/h (0 Bft) W 270 0 min 0 lux 0 min 2,6 C 4,2 C
08.09.2012 05:59 4,1 C 89 % 1022 hPa 0,0 l/m 0,0 km/h (0 Bft) W 270 0 min 0 lux 0 min 2,5 C 4,1 C
08.09.2012 06:14 3,9 C 89 % 1022 hPa 0,0 l/m 0,0 km/h (0 Bft) W 270 0 min 0 lux 0 min 2,3 C 3,9 C
08.09.2012 06:29 3,9 C 89 % 1022 hPa 0,0 l/m 0,0 km/h (0 Bft) W 270 0 min 0 lux 0 min 2,3 C 3,9 C
08.09.2012 06:44 3,8 C 90 % 1022 hPa 0,0 l/m 0,0 km/h (0 Bft) W 270 0 min 0 lux 0 min 2,3 C 3,8 C
08.09.2012 06:59 3,5 C 90 % 1022 hPa 0,0 l/m 0,0 km/h (0 Bft) W 270 0 min 0 lux 0 min 2,0 C 3,5 C
08.09.2012 07:14 3,5 C 90 % 1021 hPa 0,0 l/m 0,0 km/h (0 Bft) W 270 0 min 0 lux 0 min 2,0 C 3,5 C
08.09.2012 07:29 3,7 C 90 % 1022 hPa 0,0 l/m 0,0 km/h (0 Bft) W 270 0 min 0 lux 0 min 2,2 C 3,7 C
08.09.2012 07:44 3,7 C 90 % 1022 hPa 0,0 l/m 0,0 km/h (0 Bft) W 270 0 min 0 lux 0 min 2,2 C 3,7 C
08.09.2012 07:59 4,1 C 91 % 1022 hPa 0,0 l/m 0,0 km/h (0 Bft) W 265 0 min 0 lux 0 min 2,8 C 4,1 C
08.09.2012 08:14 4,7 C 91 % 1022 hPa 0,0 l/m 0,0 km/h (0 Bft) W 265 0 min 0 lux 0 min 3,4 C 4,7 C
08.09.2012 08:29 5,6 C 92 % 1022 hPa 0,0 l/m 0,0 km/h (0 Bft) W 270 0 min 0 lux 0 min 4,4 C 5,6 C
08.09.2012 08:43 6,5 C 92 % 1022 hPa 0,0 l/m 0,0 km/h (0 Bft) W 270 0 min 0 lux 0 min 5,3 C 6,5 C
08.09.2012 08:58 7,6 C 92 % 1022 hPa 0,0 l/m 0,0 km/h (0 Bft) W 270 0 min 0 lux 0 min 6,4 C 7,6 C
08.09.2012 09:14 8,8 C 92 % 1022 hPa 0,0 l/m 0,0 km/h (0 Bft) W 270 0 min 0 lux 0 min 7,6 C 8,8 C
08.09.2012 09:29 10,3 C 92 % 1022 hPa 0,0 l/m 0,0 km/h (0 Bft) W 270 0 min 0 lux 0 min 9,1 C 10,3 C
08.09.2012 09:44 12,1 C 90 % 1022 hPa 0,0 l/m 0,0 km/h (0 Bft) W 270 0 min 0 lux 0 min 10,5 C 12,1 C
08.09.2012 09:59 13,9 C 87 % 1022 hPa 0,0 l/m 0,0 km/h (0 Bft) W 265 0 min 0 lux 0 min 11,8 C 13,9 C
08.09.2012 10:14 15,9 C 83 % 1022 hPa 0,0 l/m 0,0 km/h (0 Bft) W 270 0 min 0 lux 0 min 13,0 C 15,9 C
08.09.2012 10:29 17,3 C 75 % 1022 hPa 0,0 l/m 0,0 km/h (0 Bft) W 270 0 min 52,8 klux 0 min 12,8 C 17,3 C
08.09.2012 10:44 18,8 C 67 % 1022 hPa 0,0 l/m 0,0 km/h (0 Bft) W 265 0 min 55,0 klux 0 min 12,5 C 18,8 C
08.09.2012 10:59 19,1 C 64 % 1022 hPa 0,0 l/m 0,0 km/h (0 Bft) W 270 15 min 57,5 klux 0 min 12,1 C 19,1 C
08.09.2012 11:14 19,2 C 61 % 1022 hPa 0,0 l/m 0,0 km/h (0 Bft) W 270 15 min 60,6 klux 0 min 11,5 C 19,2 C
08.09.2012 11:29 19,4 C 59 % 1022 hPa 0,0 l/m 0,0 km/h (0 Bft) W-SW 250 15 min 62,3 klux 0 min 11,2 C 19,4 C
08.09.2012 11:44 19,9 C 57 % 1022 hPa 0,0 l/m 0,0 km/h (0 Bft) S-SW45 200 15 min 64,0 klux 0 min 11,1 C 19,9 C
08.09.2012 11:59 20,1 C 51 % 1022 hPa 0,0 l/m 0,0 km/h (0 Bft) S22.5 170 15 min 65,9 klux 0 min 9,6 C 20,1 C
08.09.2012 12:14 20,6 C 51 % 1021 hPa 0,0 l/m 0,0 km/h (0 Bft) S22.5 190 15 min 66,9 klux 0 min 10,1 C 20,6 C
08.09.2012 12:29 20,7 C 49 % 1021 hPa 0,0 l/m 0,0 km/h (0 Bft) S-SO45 150 15 min 68,4 klux 0 min 9,6 C 20,7 C
08.09.2012 12:44 20,8 C 48 % 1021 hPa 0,0 l/m 0,0 km/h (0 Bft) S-SW67.5 205 15 min 69,3 klux 0 min 9,4 C 20,8 C
08.09.2012 12:59 20,8 C 50 % 1021 hPa 0,0 l/m 0,0 km/h (0 Bft) W-SW45 240 15 min 70,2 klux 0 min 10,0 C 20,8 C
08.09.2012 13:14 21,0 C 47 % 1021 hPa 0,0 l/m 0,0 km/h (0 Bft) W-SW22.5 240 15 min 70,6 klux 0 min 9,3 C 21,0 C
08.09.2012 13:29 21,0 C 47 % 1021 hPa 0,0 l/m 0,0 km/h (0 Bft) W-SW22.5 250 15 min 70,9 klux 0 min 9,3 C 21,0 C
08.09.2012 13:44 21,2 C 46 % 1021 hPa 0,0 l/m 0,0 km/h (0 Bft) S 185 15 min 70,9 klux 0 min 9,1 C 21,2 C
08.09.2012 13:59 21,4 C 46 % 1021 hPa 0,0 l/m 0,0 km/h (0 Bft) W-SW22.5 250 15 min 70,8 klux 0 min 9,3 C 21,4 C
08.09.2012 14:14 21,5 C 46 % 1021 hPa 0,0 l/m 0,0 km/h (0 Bft) S67.5 180 15 min 70,1 klux 0 min 9,4 C 21,5 C
08.09.2012 14:29 21,6 C 46 % 1021 hPa 0,0 l/m 0,0 km/h (0 Bft) S-SW45 205 15 min 69,6 klux 0 min 9,5 C 21,6 C
08.09.2012 14:44 21,9 C 45 % 1021 hPa 0,0 l/m 0,0 km/h (0 Bft) S22.5 175 15 min 68,6 klux 0 min 9,4 C 21,9 C
08.09.2012 14:59 21,9 C 45 % 1020 hPa 0,0 l/m 0,0 km/h (0 Bft) S22.5 170 15 min 67,2 klux 0 min 9,4 C 21,9 C
08.09.2012 15:14 22,0 C 45 % 1020 hPa 0,0 l/m 0,0 km/h (0 Bft) S-SO 155 15 min 66,1 klux 0 min 9,5 C 22,0 C
08.09.2012 15:29 22,1 C 43 % 1020 hPa 0,0 l/m 0,0 km/h (0 Bft) SW45 235 15 min 64,4 klux 0 min 8,9 C 22,1 C
08.09.2012 15:44 22,3 C 42 % 1020 hPa 0,0 l/m 0,0 km/h (0 Bft) W22.5 265 15 min 62,6 klux 0 min 8,8 C 22,3 C
08.09.2012 15:59 22,5 C 44 % 1020 hPa 0,0 l/m 0,0 km/h (0 Bft) W-SW 250 15 min 60,3 klux 0 min 9,6 C 22,5 C
08.09.2012 16:14 22,5 C 42 % 1020 hPa 0,0 l/m 0,0 km/h (0 Bft) W-SW 245 0 min 56,1 klux 0 min 8,9 C 22,5 C
08.09.2012 16:29 22,6 C 41 % 1020 hPa 0,0 l/m 0,0 km/h (0 Bft) N-NO45 15 0 min 55,4 klux 0 min 8,7 C 22,6 C
08.09.2012 16:44 22,8 C 43 % 1019 hPa 0,0 l/m 0,0 km/h (0 Bft) W22.5 280 0 min 53,4 klux 0 min 9,6 C 22,8 C
08.09.2012 16:59 23,0 C 41 % 1019 hPa 0,0 l/m 0,0 km/h (0 Bft) W-NW22.5 290 0 min 49,0 klux 0 min 9,0 C 23,0 C
08.09.2012 17:14 23,0 C 42 % 1019 hPa 0,0 l/m 0,0 km/h (0 Bft) NW 310 0 min 48,1 klux 0 min 9,4 C 23,0 C
08.09.2012 17:29 23,2 C 42 % 1019 hPa 0,0 l/m 0,0 km/h (0 Bft) W 270 0 min 43,5 klux 0 min 9,6 C 23,2 C
08.09.2012 17:44 23,0 C 42 % 1019 hPa 0,0 l/m 0,0 km/h (0 Bft) W-SW 240 0 min 41,4 klux 0 min 9,4 C 23,0 C
08.09.2012 17:59 22,8 C 43 % 1019 hPa 0,0 l/m 0,0 km/h (0 Bft) W-SW 250 0 min 37,9 klux 0 min 9,6 C 22,8 C
08.09.2012 18:14 22,6 C 43 % 1019 hPa 0,0 l/m 0,0 km/h (0 Bft) W-SW 255 0 min 34,3 klux 0 min 9,4 C 22,6 C
08.09.2012 18:29 22,4 C 44 % 1019 hPa 0,0 l/m 0,0 km/h (0 Bft) W-SW 250 0 min 30,9 klux 0 min 9,5 C 22,4 C
08.09.2012 18:44 22,0 C 44 % 1019 hPa 0,0 l/m 0,0 km/h (0 Bft) W-SW 255 0 min 27,4 klux 0 min 9,2 C 22,0 C
08.09.2012 18:59 21,6 C 45 % 1018 hPa 0,0 l/m 0,0 km/h (0 Bft) NW 320 0 min 23,0 klux 0 min 9,2 C 21,6 C
08.09.2012 19:14 20,6 C 49 % 1018 hPa 0,0 l/m 0,0 km/h (0 Bft) NW 320 0 min 18,2 klux 0 min 9,5 C 20,6 C
08.09.2012 19:29 20,0 C 51 % 1018 hPa 0,0 l/m 0,0 km/h (0 Bft) NW 320 0 min 13,4 klux 0 min 9,6 C 20,0 C
08.09.2012 19:44 19,6 C 52 % 1018 hPa 0,0 l/m 0,0 km/h (0 Bft) N-NO22.5 25 0 min 8,90 klux 0 min 9,5 C 19,6 C
08.09.2012 19:59 18,6 C 54 % 1018 hPa 0,0 l/m 0,0 km/h (0 Bft) NO 35 0 min 1,71 klux 0 min 9,1 C 18,6 C
08.09.2012 20:14 17,6 C 57 % 1018 hPa 0,0 l/m 0,0 km/h (0 Bft) NO 35 0 min 494 lux 0 min 9,0 C 17,6 C
08.09.2012 20:29 16,1 C 60 % 1018 hPa 0,0 l/m 0,0 km/h (0 Bft) NO 35 0 min 88 lux 0 min 8,3 C 16,1 C
08.09.2012 20:44 15,0 C 63 % 1019 hPa 0,0 l/m 0,0 km/h (0 Bft) NO 35 0 min 0 lux 0 min 8,0 C 15,0 C
08.09.2012 20:59 14,0 C 65 % 1019 hPa 0,0 l/m 0,0 km/h (0 Bft) NO 35 0 min 0 lux 0 min 7,5 C 14,0 C
08.09.2012 21:14 13,2 C 67 % 1019 hPa 0,0 l/m 0,0 km/h (0 Bft) N-NO 30 0 min 0 lux 0 min 7,2 C 13,2 C
08.09.2012 21:29 12,4 C 69 % 1019 hPa 0,0 l/m 0,0 km/h (0 Bft) N-NO 30 0 min 0 lux 0 min 6,9 C 12,4 C
08.09.2012 21:44 11,6 C 72 % 1019 hPa 0,0 l/m 0,0 km/h (0 Bft) N-NO 30 0 min 0 lux 0 min 6,7 C 11,6 C
08.09.2012 21:59 11,2 C 73 % 1019 hPa 0,0 l/m 0,0 km/h (0 Bft) N-NO 30 0 min 0 lux 0 min 6,5 C 11,2 C
08.09.2012 22:14 10,8 C 75 % 1019 hPa 0,0 l/m 0,0 km/h (0 Bft) N-NO 30 0 min 0 lux 0 min 6,5 C 10,8 C
08.09.2012 22:29 10,3 C 75 % 1019 hPa 0,0 l/m 0,0 km/h (0 Bft) N-NO 30 0 min 0 lux 0 min 6,1 C 10,3 C
08.09.2012 22:44 10,0 C 77 % 1019 hPa 0,0 l/m 0,0 km/h (0 Bft) N-NO 30 0 min 0 lux 0 min 6,2 C 10,0 C
08.09.2012 22:59 9,6 C 77 % 1018 hPa 0,0 l/m 0,0 km/h (0 Bft) N-NO 30 0 min 0 lux 0 min 5,8 C 9,6 C
08.09.2012 23:14 9,3 C 79 % 1018 hPa 0,0 l/m 0,0 km/h (0 Bft) N-NO 30 0 min 0 lux 0 min 5,8 C 9,3 C
08.09.2012 23:29 8,9 C 80 % 1019 hPa 0,0 l/m 0,0 km/h (0 Bft) N-NO 30 0 min 0 lux 0 min 5,6 C 8,9 C
08.09.2012 23:44 8,7 C 80 % 1018 hPa 0,0 l/m 0,0 km/h (0 Bft) N-NO 30 0 min 0 lux 0 min 5,4 C 8,7 C
08.09.2012 23:59 8,4 C 80 % 1018 hPa 0,0 l/m 0,0 km/h (0 Bft) N-NO 30 0 min 0 lux 0 min 5,2 C 8,4 C
_ Min-Zeit 06:59 16:29 18:59 - 00:14 - - - - - 06:59 06:59
Minimum _ 3,5 C 41 % 1018 hPa - 0,0 km/h (0 Bft) - - - - - 2,0 C 3,5 C
_ Max-Zeit 17:29 08:29 00:14 00:14 00:14 - - 10:59 13:29 00:14 10:14 17:29
Maximum _ 23,2 C 92 % 1023 hPa 0,0 l/m 0,0 km/h
W (0 Bft)
- - 15 min 70,9 klux 0 min 13,0 C 23,2 C
Durchschnitt _ 13,2 C 69 % 1021 hPa #0,0 l/m 0,0 km/h (0 Bft) - - - #5:15 h 21,4 klux #0 min. 6,8 C 13,2 C